Preview of NWS' New Version of Forecast
This preview is not operational and should not be used for support decisions.

Regional Weather Roundup (RWR)

Issued by National Weather Service (NWS)

                            
000
ASUS44 KJAN 232210
RWRMS 

MISSISSIPPI HOURLY WEATHER ROUNDUP
NATIONAL WEATHER SERVICE JACKSON MS
500 PM CDT SUN JUN 23 2019

NOTE: "FAIR: INDICATES FEW OR NO CLOUDS BELOW 12,000 FEET WITH NO
SIGNIFICANT WEATHER AND/OR OBSTRUCTIONS TO VISIBILITY.

MSZ001>002-007>008-010>013-018>021-025>028-034>036-232300-
NORTHWEST MISSISSIPPI
  
CITY           SKY/WX    TMP DP  RH WIND       PRES   REMARKS
BATESVILLE     FAIR      90  73  58 S14       29.87F HX  98           
CLARKSDALE     MOSUNNY   91  75  59 S15       29.87F HX 102           
CLEVELAND      FAIR      90  76  64 S10       29.87F HX 101           
GREENWOOD      FAIR      92  73  53 S12       29.89F HX 100           
GREENVILLE     FAIR      92  73  53 S16       29.86F HX 100           
OXFORD         PTSUNNY   90  72  55 S9G17     29.90F HX  96           
TUNICA           N/A     81  66  61 NW35G44   29.90R                  
WINONA         FAIR      90  74  59 S10G18    29.91F HX  99           
$$

MSZ003>006-009-014>017-022>024-029>033-037>039-232300-
NORTHEAST MISSISSIPPI
  
CITY           SKY/WX    TMP DP  RH WIND       PRES   REMARKS
ABERDEEN       FAIR      88  88 100 S9        29.93F FOG     HX 120   
COLUMBUS AFB   FAIR      91  74  56 SW7       29.91F HX 100           
CORINTH        FAIR      90  70  51 SW12G23   29.89S HX  95           
GOLDN TRIANGLE FAIR      92  74  55 S13       29.93F HX 101           
STARKVILLE     FAIR      88  75  66 CALM      29.93F HX  97           
TUPELO         FAIR      92  70  48 SW12G18   29.89F HX  97           
$$

MSZ040-058-232300-
CENTRAL MISSISSIPPI
  
CITY           SKY/WX    TMP DP  RH WIND       PRES   REMARKS
JACKSON INTL   FAIR      92  72  51 S10       29.91F HX  99           
JACKSON HAWKNS FAIR      92  73  53 SW9       29.92F HX 100           
MADISON        FAIR      88  72  58 S7        29.92F HX  94           
MERIDIAN KEY   FAIR      93  72  50 SW10      29.95F HX 101           
MERIDIAN NAS   PTSUNNY   93  70  46 VRB5      29.94F HX  99           
RAYMOND          N/A     93  79  62 S9        29.91F HX 110           
VICKSBURG VKS  CLEAR     93  75  55 S12G18    29.89F HX 104           
$$

MSZ059>079-232300-
SOUTH MISSISSIPPI
  
CITY           SKY/WX    TMP DP  RH WIND       PRES   REMARKS
BROOKHAVEN     FAIR      90  75  62 E8G15     29.96S HX 100           
HATTIESBURG    FAIR      93  73  52 S9        29.96F HX 102           
LAUREL         PTCLDY    92  72  51 S10       29.95F HX 100           
MCCOMB         LGT RAIN  88  76  67 S9        29.94F HX  99           
NATCHEZ        FAIR      91  76  61 S14G20    29.91F HX 103           
PINE BELT      FAIR      91  75  59 S7        29.96F HX 101           
$$

MSZ080>082-232300-
COASTAL MISSISSIPPI
  
CITY           SKY/WX    TMP DP  RH WIND       PRES   REMARKS
BAY ST LOUIS   MOSUNNY   88  75  66 SW12      29.96F HX  97           
BILOXI         FAIR      90  78  68 S13       29.98F HX 104           
PASCAGOULA     PTSUNNY   91  77  63 S9        29.99F HX 104           
GULFPORT       FAIR      90  77  65 S14G21    29.97F HX 103           
$$

LAZ007>009-015>016-023>026-232300-
NORTHEAST LOUISIANA
  
CITY           SKY/WX    TMP DP  RH WIND       PRES   REMARKS
BASTROP        FAIR      93  75  55 S8G16     29.85F HX 104           
TALLULAH/VBURG FAIR      91  76  61 S13       29.89F HX 103           
VIDALIA        FAIR      91  76  61 S12       29.89F HX 103           
$$